Location: Toronto
(43.6667°N, 79.4167°W)
Time: 11:29:10
(UTC-04:00)

X-37B - Pass Details

Date: 26 June 2021
Orbit: 383 x 392 km, 45.0° (Epoch: 01 July)

Event Time Altitude Azimuth Distance (km) Brightness Sun altitude
Rises 22:57:18 0° 268° (W) 2,255 4.9 -15.4°
Reaches altitude 10° 22:59:23 10° 272° (W) 1,401 3.9 -15.6°
Maximum altitude 23:02:31 67° 355° (N) 418 0.9 -15.9°
Enters shadow 23:04:58 15° 78° (ENE) 1,129 2.7 -16.1°
